Weather History for Middlesboro, KY

Change the Weather History Date:

Tuesday, November 20, 2012

  Actual Average (KLOZ) Record (KLOZ)
Temperature  
Mean Temperature 52 °F 46 °F  
Max Temperature 68 °F 57 °F 73 °F (1994)
Min Temperature 37 °F 36 °F 20 °F (1969)
Degree Days  
Heating Degree Days 12 19  
Month to date heating degree days 317  
Since 1 July heating degree days 623  
Cooling Degree Days 0 0  
Month to date cooling degree days 0  
Growing Degree Days 2 (Base 50)    
Moisture  
Dew Point 42 °F    
Average Humidity 72    
Maximum Humidity 100    
Minimum Humidity 40    
Precipitation  
Precipitation 0.00 in 0.14 in 1.69 in (1988)
Month to date precipitation 2.42  
Sea Level Pressure  
Sea Level Pressure 30.14 in    
Wind  
Wind Speed 0 mph (NNW)    
Max Wind Speed 7 mph    
Max Gust Speed -    
Visibility 9 miles    
Events      
T = Trace of Precipitation, MM = Missing Value Source: NWS Daily Summary

Daily Weather History Graph

Daily Weather History Graph

Search for Another Location

Airport:

Trip Planner

Search our weather history database for the weather conditions in past years. The results will help you decide how hot, cold, wet, or windy it might be!

Date:

Astronomy

Nov. 20, 2012 Rise Set
Actual Time 6:18 AM CST 4:22 PM CST
Civil Twilight 5:50 AM CST 4:50 PM CST
Nautical Twilight 5:18 AM CST 5:22 PM CST
Astronomical Twilight 4:48 AM CST 5:52 PM CST
Moon 11:57 AM CST (11/20) 11:47 PM CST (11/20)
Length of Visible Light 11h 00m
Length of Day
10h 04m
First Quarter, 51% of the Moon is Illuminated
Nov 20
First Quarter
Nov 28
Full
Dec 6
Last Quarter
Dec 13
New
Dec 19
First Quarter

Hourly Weather History & Observations

Time (CST) Temp. Dew Point Humidity Pressure Visibility Wind Dir Wind Speed Gust Speed Precip Events Conditions
12:15 AM 37.4 °F 35.6 °F 93% 30.20 in 10.0 mi Calm Calm - N/A   Clear
12:35 AM 37.4 °F 35.6 °F 93% 30.20 in 10.0 mi Calm Calm - N/A   Clear
12:55 AM 37.4 °F 37.4 °F 100% 30.20 in 10.0 mi Calm Calm - N/A   Clear
1:15 AM 37.4 °F 37.4 °F 100% 30.19 in 10.0 mi Calm Calm - N/A   Clear
1:35 AM 37.4 °F 37.4 °F 100% 30.19 in 10.0 mi Calm Calm - N/A   Clear
1:55 AM 37.4 °F 35.6 °F 93% 30.19 in 10.0 mi Calm Calm - N/A   Clear
2:15 AM 37.4 °F 37.4 °F 100% 30.19 in 10.0 mi Calm Calm - N/A   Clear
2:35 AM 37.4 °F 37.4 °F 100% 30.19 in 10.0 mi Calm Calm - N/A   Clear
6:15 AM 37.4 °F 37.4 °F 100% 30.19 in 10.0 mi Calm Calm - N/A   Overcast
6:35 AM 37.4 °F 37.4 °F 100% 30.19 in 10.0 mi Calm Calm - N/A   Scattered Clouds
6:55 AM 37.4 °F 37.4 °F 100% 30.19 in 10.0 mi Calm Calm - N/A   Scattered Clouds
7:15 AM 37.4 °F 35.6 °F 93% 30.20 in 10.0 mi Calm Calm - N/A   Clear
7:35 AM 37.4 °F 37.4 °F 100% 30.20 in 7.0 mi Calm Calm - N/A   Scattered Clouds
7:55 AM 39.2 °F 39.2 °F 100% 30.20 in 7.0 mi Calm Calm - N/A   Scattered Clouds
8:15 AM 41.0 °F 39.2 °F 93% 30.20 in 7.0 mi Calm Calm - N/A   Clear
8:35 AM 44.6 °F 39.2 °F 81% 30.20 in 10.0 mi Calm Calm - N/A   Clear
8:55 AM 46.4 °F 39.2 °F 76% 30.20 in 10.0 mi Calm Calm - N/A   Clear
9:15 AM 50.0 °F 39.2 °F 66% 30.19 in 10.0 mi Calm Calm - N/A   Clear
9:35 AM 51.8 °F 39.2 °F 62% 30.19 in 10.0 mi Calm Calm - N/A   Clear
9:55 AM 53.6 °F 41.0 °F 62% 30.18 in 10.0 mi Calm Calm - N/A   Clear
10:15 AM 57.2 °F 41.0 °F 55% 30.17 in 10.0 mi Calm Calm - N/A   Clear
10:35 AM 57.2 °F 41.0 °F 55% 30.16 in 10.0 mi Calm Calm - N/A   Clear
10:55 AM 60.8 °F 42.8 °F 52% 30.15 in 10.0 mi Calm Calm - N/A   Clear
11:15 AM 62.6 °F 42.8 °F 48% 30.13 in 10.0 mi Calm Calm - N/A   Clear
11:35 AM 64.4 °F 39.2 °F 40% 30.12 in 10.0 mi Calm Calm - N/A   Clear
11:55 AM 66.2 °F 41.0 °F 40% 30.11 in 10.0 mi Calm Calm - N/A   Clear
12:15 PM 66.2 °F 41.0 °F 40% 30.10 in 10.0 mi Calm Calm - N/A   Clear
1:15 PM 66.2 °F 41.0 °F 40% 30.08 in 10.0 mi WNW 5.8 mph - N/A   Clear
1:35 PM 68.0 °F 42.8 °F 40% 30.08 in 10.0 mi NE 6.9 mph - N/A   Scattered Clouds
1:55 PM 66.2 °F 41.0 °F 40% 30.07 in 10.0 mi NNW 3.5 mph - N/A   Overcast
2:15 PM 66.2 °F 42.8 °F 43% 30.07 in 10.0 mi Calm Calm - N/A   Overcast
2:35 PM 64.4 °F 42.8 °F 45% 30.07 in 10.0 mi Calm Calm - N/A   Overcast
3:15 PM 64.4 °F 41.0 °F 42% 30.07 in 10.0 mi Calm Calm - N/A   Overcast
3:55 PM 64.4 °F 42.8 °F 45% 30.07 in 7.0 mi Calm Calm - N/A   Overcast
4:15 PM 64.4 °F 41.0 °F 42% 30.07 in 10.0 mi Calm Calm - N/A   Overcast
4:35 PM 62.6 °F 41.0 °F 45% 30.07 in 7.0 mi Calm Calm - N/A   Overcast
4:55 PM 60.8 °F 44.6 °F 55% 30.07 in 10.0 mi Calm Calm - N/A   Overcast
5:35 PM 59.0 °F 46.4 °F 63% 30.09 in 7.0 mi Calm Calm - N/A   Overcast
5:55 PM 57.2 °F 46.4 °F 67% 30.09 in 7.0 mi Calm Calm - N/A   Overcast
6:15 PM 57.2 °F 46.4 °F 67% 30.10 in 10.0 mi Calm Calm - N/A   Overcast
6:35 PM 55.4 °F 46.4 °F 72% 30.10 in 7.0 mi Calm Calm - N/A   Overcast
6:55 PM - - N/A% 30.10 in - Calm Calm - N/A   Unknown
7:15 PM 55.4 °F 46.4 °F 72% 30.11 in 4.0 mi Calm Calm - N/A   Haze
7:35 PM 55.4 °F 46.4 °F 72% 30.11 in 7.0 mi Calm Calm - N/A   Overcast
7:55 PM 53.6 °F 44.6 °F 72% 30.11 in 10.0 mi Calm Calm - N/A   Overcast
8:15 PM 53.6 °F 46.4 °F 77% 30.11 in 7.0 mi Calm Calm - N/A   Overcast
8:35 PM 53.6 °F 46.4 °F 77% 30.12 in 5.0 mi Calm Calm - N/A   Haze
8:55 PM 53.6 °F 46.4 °F 77% 30.12 in 4.0 mi Calm Calm - N/A   Haze
9:15 PM 53.6 °F 46.4 °F 77% 30.12 in 7.0 mi Calm Calm - N/A   Overcast
9:35 PM 51.8 °F 46.4 °F 82% 30.12 in 5.0 mi Calm Calm - N/A   Haze
9:55 PM 53.6 °F 46.4 °F 77% 30.13 in 5.0 mi Calm Calm - N/A   Haze
10:15 PM 51.8 °F 46.4 °F 82% 30.13 in 10.0 mi Calm Calm - N/A   Overcast
10:35 PM 51.8 °F 44.6 °F 76% 30.13 in 5.0 mi Calm Calm - N/A   Haze
10:55 PM 51.8 °F 46.4 °F 82% 30.13 in 7.0 mi Calm Calm - N/A   Overcast
11:15 PM 51.8 °F 46.4 °F 82% 30.13 in 10.0 mi Calm Calm - N/A   Overcast
11:35 PM 51.8 °F 46.4 °F 82% 30.13 in 4.0 mi Calm Calm - N/A   Haze
11:55 PM 51.8 °F 46.4 °F 82% 30.12 in 5.0 mi Calm Calm - N/A   Haze